Weather Roundup
Issued by NWS Springfield, MO

Home | Current Version | Previous Version | Text Only | Print | Product List | Glossary On
Versions: 1 2 3 4 5 6 7 8 9 10 11 12 13 14 15 16 17 18 19 20 21 22 23 24 25 26 27 28 29 30 31 32 33 34 35 36 37 38 39 40 41 42 43 44 45 46 47 48 49 50
000
NZUS99 KSGF 241407
HRRSGF

HOURLY WEATHER
NATIONAL WEATHER SERVICE SPRINGFIELD MO
900 AM CDT FRI OCT 24 2014

......SGF CWA......

CITY           SKY/WX    TMP DP  RH WIND       PRES   REMARKS
SPRINGFIELD    CLOUDY    54  51  90 S5        30.12S
JOPLIN         SUNNY     57  54  89 S8        30.12S
WEST PLAINS    PTSUNNY   51  48  89 CALM      30.16R
ROLLA          PTSUNNY   55  54  96 SW6       30.12R FOG
OSAGE BEACH    SUNNY     61  55  82 S5        30.12R
BRANSON        MOSUNNY   57  55  94 CALM      30.15R

......SURROUNDING SGF CWA......

CITY           SKY/WX    TMP DP  RH WIND       PRES   REMARKS
CHANUTE        MOSUNNY   58  56  93 S9        30.09R
PARSONS        SUNNY     58  56  93 S7        30.11R
COFFEYVILLE    SUNNY     58  56  93 S8        30.10R
EMPORIA        MOSUNNY   57  57 100 S8        30.06R FOG
GROVE OK       PTSUNNY   54  54 100 CALM      30.14R
ROGERS AR      SUNNY     55  51  86 S6        30.16R
SILOAM SPRINGS MOSUNNY   54  46  76 SE3       30.15F
HARRISON AR    SUNNY     53  52  96 CALM      30.15R
NEAR YELLVILLE MOSUNNY   46  43  87 CALM      30.16R

......KANSAS AND MISSOURI......

CITY           SKY/WX    TMP DP  RH WIND       PRES   REMARKS
KANSAS CTY INT CLOUDY    58  57  97 S12       30.04S FOG
DOWNTOWN KC    PTSUNNY   58  56  93 S6        30.05S FOG
COLUMBIA       CLOUDY    57  56  96 S5        30.11S FOG
SEDALIA        MOSUNNY   59  55  87 S7        30.11R
ST JOSEPH      CLOUDY    58  58 100 S6        30.03S FOG
ST LOUIS       CLOUDY    58  52  80 W7        30.12R
SPIRIT OF STL  PTSUNNY   54  52  93 CALM      30.12R
KIRKSVILLE     FOG       56  56 100 S8        30.07F VSB 1/4
WICHITA        MOSUNNY   59  57  93 S9        30.07R FOG
TOPEKA         CLOUDY    60  59  96 S6        30.04R FOG
OLATHE         PTSUNNY   56  56 100 S7        30.06R FOG

......TENNESSEE......

CITY           SKY/WX    TMP DP  RH WIND       PRES   REMARKS
MEMPHIS        MOSUNNY   56  48  74 CALM      30.17R
NASHVILLE      MOSUNNY   54  46  74 CALM      30.14F

......ARKANSAS.......

CITY           SKY/WX    TMP DP  RH WIND       PRES   REMARKS
FAYETTEVILLE   MOSUNNY   50  49  96 CALM      30.16R
FT SMITH       MOSUNNY   55  53  93 E5        30.17R
LITTLE ROCK    MOSUNNY   54  48  80 CALM      30.18R

......OKLAHOMA.......

CITY           SKY/WX    TMP DP  RH WIND       PRES   REMARKS
TULSA          PTSUNNY   61  54  77 S10       30.10S
PONCA CITY     SUNNY     61  55  81 S6        30.09R
MCALESTER      SUNNY     58  53  84 SW5       30.16R
OKLAHOMA CITY  MOSUNNY   59  55  87 S12       30.11R

......IOWA............

CITY           SKY/WX    TMP DP  RH WIND       PRES   REMARKS
DES MOINES     FOG       59  58  96 S10       29.98S VSB 1/8
QUAD CITIES    FOG       54  53  97 S6        30.07R VSB 3/4

......ILLINOIS........

CITY           SKY/WX    TMP DP  RH WIND       PRES   REMARKS
QUINCY         FOG       55  54  96 SW7       30.09R VSB<1/4
CHICAGO        PTSUNNY   53  46  77 NW6       30.06S




USA.gov is the U.S. government's official web portal to all federal, state and local government web resources and services.